Regional Weather Roundup
Issued by NWS

Home | Current Version | Previous Version | Graphics & Text | Print | Product List | Glossary On
Versions: 1 2 3 4 5 6 7 8 9 10 11 12 13 14 15 16 17 18 19 20 21 22 23 24 25 26 27 28 29 30 31 32 33 34 35 36 37 38 39 40 41 42 43 44 45 46 47 48 49 50
000
ASUS43 KIND 070109
RWRIN

WEATHER ROUNDUP FOR INDIANA
NATIONAL WEATHER SERVICE INDIANAPOLIS IN
800 PM EST TUE DEC 06 2016

NOTE: "FAIR" INDICATES FEW OR NO CLOUDS BELOW 12,000 FEET WITH NO
SIGNIFICANT WEATHER AND/OR OBSTRUCTIONS TO VISIBILITY.

* - STATION DOES NOT REPORT WEATHER SUCH AS PRECIPITATION OR FOG.

+ - STATION NOT QUALITY CONTROLLED BY THE NATIONAL WEATHER SERVICE.
    USE DATA WITH CAUTION...ESPECIALLY DEWPOINT AND RELATIVE
    HUMIDITY OBSERVATIONS.

INZ001>003-010>013-019-020-070200-
NORTHWEST INDIANA

CITY           SKY/WX    TMP DP  RH WIND       PRES   REMARKS
GARY /AIRPORT/ CLEAR     34  25  69 W15       29.92R WCI  24
KNOX *+        PTCLDY    32  16  51 W15G23    29.90R WCI  22
LA PORTE +     PTCLDY    34  34 100 W12G23    29.89R WCI  25
MICHIGAN CITY+ MOCLDY    34  28  80 W9G23     29.89R WCI  26
MONTICELLO +   PTCLDY    32  28  82 W8        29.93R WCI  25
RENSSELAER +     N/A     32  32 100 W10       29.93R WCI  24
VALPARAISO     CLOUDY    33  27  78 W16       29.90R WCI  23

$$

LMZ046-743>745-070200-
SOUTHERN LAKE MICHIGAN

STATION/POSITION TIME  TEMP    WIND        PRES    WAVE
                       AIR SEA DIR/SP/G            HT
                 (UTC) (F)     (DEG/KT/KT) (MB)    (FT)
BURNS HARBOR     0018   36     270/ 25     1012.2
MICHIGAN CITY    0010   37     230/ 25/ 29   N/A

$$

INZ004-005-014>016-021>024-070200-
NORTH CENTRAL INDIANA

CITY           SKY/WX    TMP DP  RH WIND       PRES   REMARKS
ELKHART        CLOUDY    36  32  87 W12       29.84R
GOSHEN         MOCLDY    35  30  82 W14       29.85R WCI  26
LOGANSPORT +   CLOUDY    32  30  93 W13G18    29.93R WCI  22
PERU/GRISSOM   CLOUDY    34  32  92 W15       29.89R WCI  25
ROCHESTER +    MOCLDY    36  34  93 W10       29.89R
SOUTH BEND     CLOUDY    34  30  85 W10       29.86R WCI  26
WARSAW +       CLOUDY    34  30  86 W15       29.87R WCI  24

$$

INZ006>009-017-018-025>027-070200-
NORTHEAST INDIANA

CITY           SKY/WX    TMP DP  RH WIND       PRES   REMARKS
ANGOLA *+      CLOUDY    37  34  87 W12       29.80R
AUBURN +       MOCLDY    36  32  87 W9G16     29.84R HAZE
FORT WAYNE     CLOUDY    35  31  85 W16       29.86R WCI  25
HUNTINGTON +   CLOUDY    34  32  92 W9G22     29.88R WCI  27
KENDALLVILLE + CLOUDY    36  33  90 W16       29.83R FOG

$$

INZ028-029-035-036-043>045-051>053-070200-
WEST CENTRAL INDIANA

CITY           SKY/WX    TMP DP  RH WIND       PRES   REMARKS
CRAWFORDSVL +  PTCLDY    32  32 100 W7        29.95R WCI  26
LAFAYETTE      CLOUDY    32  29  88 W8        29.96R WCI  25
TERRE HAUTE    PTCLDY    37  31  78 NW6       29.98R

$$

INZ030>032-037>040-046>048-054>057-064-065-070200-
CENTRAL INDIANA

CITY           SKY/WX    TMP DP  RH WIND       PRES   REMARKS
CP ATTERBURY + CLOUDY    36  32  87 W7        29.96S
FISHERS *+     CLOUDY    34  34 100 NW8       29.94  WCI  27
FRANKFORT +    MOCLDY    37  32  85 NW14      29.95R
GREENWOOD *+   CLOUDY    37  33  82 W8        29.95R
INDIANAPOLIS   CLOUDY    36  31  82 W15       29.94R
-EAGLE CREEK   PTCLDY    37  30  75 NW16      29.94R
KOKOMO +       CLOUDY    35  31  85 W17       29.92R WCI  25
MARION +       CLOUDY    34  32  92 W15G21    29.91R WCI  24
MT COMFORT *+  CLOUDY    36  30  80 NW20      29.93R
SHELBYVILLE    CLOUDY    38  31  76 W12       29.93R
ZIONSVILLE +   CLOUDY    35  31  88 W10G16    29.94R WCI  27

$$

INZ033-034-041-042-049-050-058-059-070200-
EAST CENTRAL INDIANA

CITY           SKY/WX    TMP DP  RH WIND       PRES   REMARKS
MUNCIE         CLOUDY    36  32  85 W14       29.90R

$$

INZ060-061-067>069-081>083-085>088-070200-
SOUTHWEST INDIANA

CITY           SKY/WX    TMP DP  RH WIND       PRES   REMARKS
EVANSVILLE     CLOUDY    41  35  79 N5        30.03R
HUNTINGBURG *+ CLOUDY    39  34  82 NW7       30.01R
WASHINGTON +   CLOUDY    38  37  94 W7        30.02R

$$

INZ062-063-066-070>080-084-089>092-070200-
SOUTH CENTRAL AND SOUTHEAST INDIANA

CITY           SKY/WX    TMP DP  RH WIND       PRES   REMARKS
BLOOMINGTON    CLOUDY    37  32  82 W5        29.96S
MADISON *+     CLOUDY    41  34  75 W12G18    29.96R
NORTH VERNON + CLOUDY    39  39 100 NW18G25   29.96R
SEYMOUR +      CLOUDY    39  32  75 NW17      29.97R

$$





USA.gov is the U.S. government's official web portal to all federal, state and local government web resources and services.